Regional Weather Roundup
Issued by NWS

Home | Current Version | Previous Version | Graphics & Text | Print | Product List | Glossary On
Versions: 1 2 3 4 5 6 7 8 9 10 11 12 13 14 15 16 17 18 19 20 21 22 23 24 25 26 27 28 29 30 31 32 33 34 35 36 37 38 39 40 41 42 43 44 45 46 47 48 49 50
000
ASUS43 KTOP 121208
RWRKS

WEATHER ROUNDUP FOR KANSAS
NATIONAL WEATHER SERVICE GOODLAND KS
700 AM CDT SAT JUL 12 2014

NOTE:  "FAIR" INDICATES FEW OR NO CLOUDS BELOW 12,000 FEET WITH NO
SIGNIFICANT WEATHER AND/OR OBSTRUCTIONS TO VISIBILITY.

KSZ001>006-013>018-027>032-041>047-121300-
NORTHWEST KANSAS

CITY           SKY/WX    TMP DP  RH WIND       PRES   REMARKS
GOODLAND       MOCLDY    63  61  93 NW6       30.08S
6HR MIN TEMP:  62; 6HR MAX TEMP:  70; 6HR PCP: TRACE;

HAYS           PTCLDY    68  55  64 CALM      30.03S
HILL CITY      MOCLDY    69  61  75 NW3       30.02R
6HR MIN TEMP:  69; 6HR MAX TEMP:  80;

RUSSELL        PTCLDY    71  63  75 S14       30.02R
6HR MIN TEMP:  70; 6HR MAX TEMP:  76;

$$

KSZ061>065-074>080-084>089-121300-
SOUTHWEST KANSAS

CITY           SKY/WX    TMP DP  RH WIND       PRES   REMARKS
DODGE CITY     CLEAR     67  61  81 S9        30.08R
6HR MIN TEMP:  67; 6HR MAX TEMP:  74;

ELKHART          N/A     69  59  70 S7          N/A
GARDEN CITY    PTCLDY    68  60  75 S12       30.07R
6HR MIN TEMP:  65; 6HR MAX TEMP:  72;

GREAT BEND     CLEAR     70  63  78 S8        30.04R
LIBERAL        CLEAR     70  59  68 S12       30.13R
PRATT          CLEAR     68  61  77 S7        30.09R
$$

KSZ066>073-081>083-090>101-121300-
SOUTHEAST KANSAS

CITY           SKY/WX    TMP DP  RH WIND       PRES   REMARKS
CHANUTE        CLEAR     73  67  81 S8        30.10S
6HR MIN TEMP:  72; 6HR MAX TEMP:  76;

COFFEYVILLE    CLEAR     73  67  81 S8        30.10R
6HR MIN TEMP:  72; 6HR MAX TEMP:  75;

HUTCHINSON     PTCLDY    70  63  78 SE6       30.06R
6HR MIN TEMP:  70; 6HR MAX TEMP:  75;

MEDICINE LODGE   N/A     71  63  75 SE5       30.07R
NEWTON         CLEAR     73  59  60 S9        30.11R
PARSONS        CLEAR     72  67  84 S5        30.11S
6HR MIN TEMP:  71; 6HR MAX TEMP:  77;

WICHITA INTL   PTCLDY    70  63  78 S6        30.07R
6HR MIN TEMP:  70; 6HR MAX TEMP:  76;

WICHITA JABRA  CLEAR     74  63  68 S10       30.08R
6HR MIN TEMP:  74; 6HR MAX TEMP:  77;

WICHITA MCCONL CLEAR     72  66  83 S8        30.08R
WINFIELD       CLEAR     74  64  71 S10       30.09R
6HR MIN TEMP:  73; 6HR MAX TEMP:  78;

$$

KSZ007>012-019>026-033>040-048>060-102>105-121300-
NORTHEAST KANSAS

CITY           SKY/WX    TMP DP  RH WIND       PRES   REMARKS
CONCORDIA      PTCLDY    73  63  70 S16       30.00S
6HR MIN TEMP:  73; 6HR MAX TEMP:  79;

EMPORIA        PTCLDY    71  64  78 S10       30.06F
6HR MIN TEMP:  69; 6HR MAX TEMP:  75;

LAWRENCE       PTCLDY    73  68  84 SE6       30.06R
6HR MIN TEMP:  70; 6HR MAX TEMP:  79;

MANHATTAN      PTCLDY    75  63  66 SW10      30.03S
6HR MIN TEMP:  74; 6HR MAX TEMP:  81;

MARYSVILLE     MOCLDY    72  64  78 S6        30.01F
OLATHE IND     CLEAR     72  67  84 S8        30.08S
6HR MIN TEMP:  70; 6HR MAX TEMP:  78;

OLATHE EXE     CLEAR     70  67  90 S6        30.07S
6HR MIN TEMP:  70; 6HR MAX TEMP:  78;

SALINA         CLEAR     72  63  73 S8        30.03S
6HR MIN TEMP:  71; 6HR MAX TEMP:  81;

TOPEKA BILLARD MOCLDY    77  66  68 S9        30.04S
6HR MIN TEMP:  77; 6HR MAX TEMP:  80;

TOPEKA FORBES  PTCLDY    73  67  81 S8        30.05S
6HR MIN TEMP:  73; 6HR MAX TEMP:  78;

$$



USA.gov is the U.S. government's official web portal to all federal, state and local government web resources and services.